time, Switch, Flow(0), Analog(2)
yyyy/mm/dd HH:MM:SS.fff, True=FILTERED|False=TOTAL, L/min, V
2023/06/29 05:00:02.042, True, 5.300, 0.134279
2023/06/29 05:00:02.538, True, 5.054, 0.135119
2023/06/29 05:00:03.041, True, 4.642, 0.132753
2023/06/29 05:00:03.546, True, 4.312, 0.132372
2023/06/29 05:00:04.050, True, 2.984, 0.134966
2023/06/29 05:00:04.546, True, 2.359, 0.132753
2023/06/29 05:00:05.050, True, 2.321, 0.132296
2023/06/29 05:00:05.554, True, 2.324, 0.133059
2023/06/29 05:00:06.050, True, 2.020, 0.133974
2023/06/29 05:00:06.554, True, 1.990, 0.133669
2023/06/29 05:00:07.058, True, 2.322, 0.133135
2023/06/29 05:00:07.553, True, 2.021, 0.135653
2023/06/29 05:00:08.058, True, 1.989, 0.133211
2023/06/29 05:00:08.562, True, 1.990, 0.133059
2023/06/29 05:00:09.058, True, 2.362, 0.134737
2023/06/29 05:00:09.562, True, 1.988, 0.132982
2023/06/29 05:00:10.058, True, 2.020, 0.133211
2023/06/29 05:00:10.562, True, 2.321, 0.133516
2023/06/29 05:00:11.066, True, 2.322, 0.131228
2023/06/29 05:00:11.570, True, 1.989, 0.133364
2023/06/29 05:00:12.066, True, 2.025, 0.132906
2023/06/29 05:00:12.570, True, 1.988, 0.132143
2023/06/29 05:00:13.074, True, 1.991, 0.132830
2023/06/29 05:00:13.570, True, 2.019, 0.131838
2023/06/29 05:00:14.074, True, 2.322, 0.134432
2023/06/29 05:00:14.578, True, 1.991, 0.133364
2023/06/29 05:00:15.074, True, 2.357, 0.131762
2023/06/29 05:00:15.578, True, 1.989, 0.134508
2023/06/29 05:00:16.074, True, 2.358, 0.134051
2023/06/29 05:00:16.577, True, 1.990, 0.132372
2023/06/29 05:00:17.082, True, 2.322, 0.133898
2023/06/29 05:00:17.578, True, 1.684, 0.133974
2023/06/29 05:00:18.082, True, 1.992, 0.132143
2023/06/29 05:00:18.586, True, 1.987, 0.133364
2023/06/29 05:00:19.082, True, 2.364, 0.133593
2023/06/29 05:00:19.586, True, 1.987, 0.132448
2023/06/29 05:00:20.090, True, 1.988, 0.131685
2023/06/29 05:00:20.586, True, 2.021, 0.136110
2023/06/29 05:00:21.090, True, 1.990, 0.134051
2023/06/29 05:00:21.594, True, 2.321, 0.132601
2023/06/29 05:00:22.090, True, 2.021, 0.133440
2023/06/29 05:00:22.594, True, 1.990, 0.134966
2023/06/29 05:00:23.090, True, 2.022, 0.132753
2023/06/29 05:00:23.593, True, 2.321, 0.134585
2023/06/29 05:00:24.098, True, 1.990, 0.132525
2023/06/29 05:00:24.594, True, 2.022, 0.130694
2023/06/29 05:00:25.098, True, 2.321, 0.132753
2023/06/29 05:00:25.602, True, 1.990, 0.134127
2023/06/29 05:00:26.098, True, 2.022, 0.135882
2023/06/29 05:00:26.602, True, 1.990, 0.132753
2023/06/29 05:00:27.106, True, 2.322, 0.133135
2023/06/29 05:00:27.602, True, 2.021, 0.134661
2023/06/29 05:00:28.106, True, 1.990, 0.133745
2023/06/29 05:00:28.610, True, 2.321, 0.132219
2023/06/29 05:00:29.106, True, 2.022, 0.135119
2023/06/29 05:00:29.610, True, 1.990, 0.133898
2023/06/29 05:00:30.114, True, 2.321, 0.133745
2023/06/29 05:00:30.610, True, 2.022, 0.132982
2023/06/29 05:00:31.114, True, 1.990, 0.133135
2023/06/29 05:00:31.618, True, 1.990, 0.131762
2023/06/29 05:00:32.114, True, 2.021, 0.133669
2023/06/29 05:00:32.617, True, 1.993, 0.135424
2023/06/29 05:00:33.114, True, 2.355, 0.135882
2023/06/29 05:00:33.618, True, 1.990, 0.135195
2023/06/29 05:00:34.122, True, 1.990, 0.136187
2023/06/29 05:00:34.625, True, 2.322, 0.134737
2023/06/29 05:00:35.130, True, 1.988, 0.134737
2023/06/29 05:00:35.626, True, 2.359, 0.135119
2023/06/29 05:00:36.129, True, 1.989, 0.134966
2023/06/29 05:00:36.634, True, 2.321, 0.135271
2023/06/29 05:00:37.130, True, 2.359, 0.138247
2023/06/29 05:00:37.633, True, 1.990, 0.136797
2023/06/29 05:00:38.137, True, 2.321, 0.136263
2023/06/29 05:00:38.634, True, 2.022, 0.135271
2023/06/29 05:00:39.138, True, 1.989, 0.136110
2023/06/29 05:00:39.642, True, 1.990, 0.135348
2023/06/29 05:00:40.138, True, 2.021, 0.134432
2023/06/29 05:00:40.642, True, 2.323, 0.136721
2023/06/29 05:00:41.145, True, 1.989, 0.137865
2023/06/29 05:00:41.642, True, 2.358, 0.136263
2023/06/29 05:00:42.145, True, 1.989, 0.139849
2023/06/29 05:00:42.650, True, 2.326, 0.138247
2023/06/29 05:00:43.146, True, 2.017, 0.139315
2023/06/29 05:00:43.649, True, 2.321, 0.137484
2023/06/29 05:00:44.145, True, 2.022, 0.138476
2023/06/29 05:00:44.650, True, 2.326, 0.138018
2023/06/29 05:00:45.153, True, 1.985, 0.137026
2023/06/29 05:00:45.650, True, 2.021, 0.139773
2023/06/29 05:00:46.154, True, 2.323, 0.138170
2023/06/29 05:00:46.658, True, 2.320, 0.137865
2023/06/29 05:00:47.162, True, 1.990, 0.140459
2023/06/29 05:00:47.658, True, 2.022, 0.139544
2023/06/29 05:00:48.162, True, 1.990, 0.138323
2023/06/29 05:00:48.666, True, 1.989, 0.137713
2023/06/29 05:00:49.162, True, 2.360, 0.138247
2023/06/29 05:00:49.666, True, 1.992, 0.136263
2023/06/29 05:00:50.170, True, 1.988, 0.139773
2023/06/29 05:00:50.666, True, 2.024, 0.139315
2023/06/29 05:00:51.170, True, 1.988, 0.139162
2023/06/29 05:00:51.674, True, 2.320, 0.140002
2023/06/29 05:00:52.170, True, 2.022, 0.140917
2023/06/29 05:00:52.674, True, 1.989, 0.138857
2023/06/29 05:00:53.178, True, 1.991, 0.141299
2023/06/29 05:00:53.674, True, 2.022, 0.139467
2023/06/29 05:00:54.178, True, 1.987, 0.140612
2023/06/29 05:00:54.681, True, 2.321, 0.139086
2023/06/29 05:00:55.177, True, 2.024, 0.139391
2023/06/29 05:00:55.682, True, 2.319, 0.142367
2023/06/29 05:00:56.186, True, 1.990, 0.139315
2023/06/29 05:00:56.682, True, 2.358, 0.141299
2023/06/29 05:00:57.186, True, 1.990, 0.141833
2023/06/29 05:00:57.690, True, 2.325, 0.139544
2023/06/29 05:00:58.186, True, 2.018, 0.140536
2023/06/29 05:00:58.690, True, 2.321, 0.142061
2023/06/29 05:00:59.194, True, 1.992, 0.139849
2023/06/29 05:00:59.690, True, 2.019, 0.141146
2023/06/29 05:01:00.194, True, 2.321, 0.139925
2023/06/29 05:01:00.698, True, 1.990, 0.141299
2023/06/29 05:01:01.194, True, 2.362, 0.138705
2023/06/29 05:01:01.698, True, 1.987, 0.141833
2023/06/29 05:01:02.202, True, 2.321, 0.138933
2023/06/29 05:01:02.698, True, 2.021, 0.141909
2023/06/29 05:01:03.201, True, 2.321, 0.140688
2023/06/29 05:01:03.698, True, 2.022, 0.140764
2023/06/29 05:01:04.202, True, 2.320, 0.139086
2023/06/29 05:01:04.706, True, 2.321, 0.139544
2023/06/29 05:01:05.202, True, 2.022, 0.140612
2023/06/29 05:01:05.706, True, 2.323, 0.139467
2023/06/29 05:01:06.210, True, 1.988, 0.141451
2023/06/29 05:01:06.714, True, 1.989, 0.141833
2023/06/29 05:01:07.210, True, 2.023, 0.138628
2023/06/29 05:01:07.714, True, 1.659, 0.140459
2023/06/29 05:01:08.218, True, 1.987, 0.140993
2023/06/29 05:01:08.714, True, 2.358, 0.140764
2023/06/29 05:01:09.218, True, 1.989, 0.141527
2023/06/29 05:01:09.722, True, 1.993, 0.138476
2023/06/29 05:01:10.218, True, 2.019, 0.139773
2023/06/29 05:01:10.722, True, 2.321, 0.141299
2023/06/29 05:01:11.218, True, 2.022, 0.140841
2023/06/29 05:01:11.722, True, 1.990, 0.140383
2023/06/29 05:01:12.226, True, 2.321, 0.140383
2023/06/29 05:01:12.730, True, 1.990, 0.139620
2023/06/29 05:01:13.226, True, 2.359, 0.141527
2023/06/29 05:01:13.730, True, 1.989, 0.140536
2023/06/29 05:01:14.234, True, 2.324, 0.140459
2023/06/29 05:01:14.730, True, 2.019, 0.139086
2023/06/29 05:01:15.234, True, 1.990, 0.140154
2023/06/29 05:01:15.730, True, 2.359, 0.142367
2023/06/29 05:01:16.234, True, 1.989, 0.139696
2023/06/29 05:01:16.738, True, 1.993, 0.138857
2023/06/29 05:01:17.234, True, 2.355, 0.141222
2023/06/29 05:01:17.738, True, 1.992, 0.141833
2023/06/29 05:01:18.242, True, 1.987, 0.139162
2023/06/29 05:01:18.737, True, 2.022, 0.139315
2023/06/29 05:01:19.242, True, 1.989, 0.138857
2023/06/29 05:01:19.738, True, 2.361, 0.141375
2023/06/29 05:01:20.242, True, 1.988, 0.140154
2023/06/29 05:01:20.746, True, 1.989, 0.138857
2023/06/29 05:01:21.242, True, 2.021, 0.139086
2023/06/29 05:01:21.746, True, 1.990, 0.140841
2023/06/29 05:01:22.250, True, 1.990, 0.138170
2023/06/29 05:01:22.746, True, 2.022, 0.137713
2023/06/29 05:01:23.249, True, 2.321, 0.139010
2023/06/29 05:01:23.754, True, 1.989, 0.141299
2023/06/29 05:01:24.258, True, 1.989, 0.140078
2023/06/29 05:01:24.754, True, 2.022, 0.138476
2023/06/29 05:01:25.258, True, 2.321, 0.139925
2023/06/29 05:01:25.762, True, 1.989, 0.140993
2023/06/29 05:01:26.258, True, 2.022, 0.139925
2023/06/29 05:01:26.762, True, 1.990, 0.140002
2023/06/29 05:01:27.266, True, 2.321, 0.139391
2023/06/29 05:01:27.761, True, 2.025, 0.140917
2023/06/29 05:01:28.265, True, 1.987, 0.139773
2023/06/29 05:01:28.770, True, 1.990, 0.137255
2023/06/29 05:01:29.266, True, 2.021, 0.140536
2023/06/29 05:01:29.769, True, 1.989, 0.139086
2023/06/29 05:01:30.265, True, 2.022, 0.139315
2023/06/29 05:01:30.770, True, 2.320, 0.138552
2023/06/29 05:01:31.273, True, 1.990, 0.140993
2023/06/29 05:01:31.770, True, 2.023, 0.141527
2023/06/29 05:01:32.274, True, 1.992, 0.139620
2023/06/29 05:01:32.778, True, 2.316, 0.138781
2023/06/29 05:01:33.274, True, 2.022, 0.139849
2023/06/29 05:01:33.778, True, 2.321, 0.141909
2023/06/29 05:01:34.282, True, 1.990, 0.138323
2023/06/29 05:01:34.778, True, 2.022, 0.139239
2023/06/29 05:01:35.282, True, 1.989, 0.139239
2023/06/29 05:01:35.786, True, 1.990, 0.138933
2023/06/29 05:01:36.290, True, 2.322, 0.141146
2023/06/29 05:01:36.786, True, 2.021, 0.139467
2023/06/29 05:01:37.290, True, 2.321, 0.139620
2023/06/29 05:01:37.794, True, 1.990, 0.138399
2023/06/29 05:01:38.290, True, 2.359, 0.139086
2023/06/29 05:01:38.794, True, 1.989, 0.138399
2023/06/29 05:01:39.298, True, 1.990, 0.140917
2023/06/29 05:01:39.794, True, 2.360, 0.138476
2023/06/29 05:01:40.298, True, 1.989, 0.137255
2023/06/29 05:01:40.802, True, 2.320, 0.139696
2023/06/29 05:01:41.298, True, 2.021, 0.139544
2023/06/29 05:01:41.802, True, 1.990, 0.139849
2023/06/29 05:01:42.306, True, 2.321, 0.138857
2023/06/29 05:01:42.802, True, 2.022, 0.138247
2023/06/29 05:01:43.306, True, 1.989, 0.138781
2023/06/29 05:01:43.810, True, 2.321, 0.139773
2023/06/29 05:01:44.306, True, 2.024, 0.138552
2023/06/29 05:01:44.810, True, 2.318, 0.139010
2023/06/29 05:01:45.314, True, 1.994, 0.139315
2023/06/29 05:01:45.809, True, 2.017, 0.138552
2023/06/29 05:01:46.314, True, 2.322, 0.139315
2023/06/29 05:01:46.818, True, 1.990, 0.138170
2023/06/29 05:01:47.314, True, 2.021, 0.137026
2023/06/29 05:01:47.818, True, 1.990, 0.139239
2023/06/29 05:01:48.322, True, 2.321, 0.140383
2023/06/29 05:01:48.818, True, 2.021, 0.137407
2023/06/29 05:01:49.322, True, 1.990, 0.139315
2023/06/29 05:01:49.826, True, 1.990, 0.139162
2023/06/29 05:01:50.322, True, 2.022, 0.138857
2023/06/29 05:01:50.826, True, 2.320, 0.138552
2023/06/29 05:01:51.330, True, 1.989, 0.137331
2023/06/29 05:01:51.826, True, 2.365, 0.137102
2023/06/29 05:01:52.330, True, 1.987, 0.137484
2023/06/29 05:01:52.834, True, 1.988, 0.138628
2023/06/29 05:01:53.330, True, 2.021, 0.137026
2023/06/29 05:01:53.834, True, 1.990, 0.140002
2023/06/29 05:01:54.338, True, 1.990, 0.139544
2023/06/29 05:01:54.834, True, 2.021, 0.138933
2023/06/29 05:01:55.338, True, 2.321, 0.139544
2023/06/29 05:01:55.842, True, 1.990, 0.139544
2023/06/29 05:01:56.338, True, 2.022, 0.138933
2023/06/29 05:01:56.842, True, 1.989, 0.138857
2023/06/29 05:01:57.346, True, 1.990, 0.138170
2023/06/29 05:01:57.842, True, 2.358, 0.138857
2023/06/29 05:01:58.346, True, 1.990, 0.136950
2023/06/29 05:01:58.842, True, 2.022, 0.139467
2023/06/29 05:01:59.346, True, 1.992, 0.138399
2023/06/29 05:01:59.850, True, 1.987, 0.140764
2023/06/29 05:02:00.354, True, 1.993, 0.140230
2023/06/29 05:02:00.857, True, 2.318, 0.138247
2023/06/29 05:02:01.354, True, 2.022, 0.139086
2023/06/29 05:02:01.858, True, 2.321, 0.137255
2023/06/29 05:02:02.362, True, 1.992, 0.137026
2023/06/29 05:02:02.858, True, 2.020, 0.138476
2023/06/29 05:02:03.362, True, 1.989, 0.139467
2023/06/29 05:02:03.866, True, 2.321, 0.139315
2023/06/29 05:02:04.362, True, 2.022, 0.138933
2023/06/29 05:02:04.865, True, 1.989, 0.139239
2023/06/29 05:02:05.369, True, 1.991, 0.138094
2023/06/29 05:02:05.874, True, 2.319, 0.137713
2023/06/29 05:02:06.370, True, 2.022, 0.141070
2023/06/29 05:02:06.874, True, 2.321, 0.137713
2023/06/29 05:02:07.370, True, 2.022, 0.139467
2023/06/29 05:02:07.874, True, 2.323, 0.137713
2023/06/29 05:02:08.377, True, 1.987, 0.135882
2023/06/29 05:02:08.882, True, 2.322, 0.137179
2023/06/29 05:02:09.377, True, 2.021, 0.140383
2023/06/29 05:02:09.882, True, 2.321, 0.138094
2023/06/29 05:02:10.386, True, 1.990, 0.138933
2023/06/29 05:02:10.882, True, 2.022, 0.137179
2023/06/29 05:02:11.385, True, 1.989, 0.138933
2023/06/29 05:02:11.890, True, 2.324, 0.140078
2023/06/29 05:02:12.386, True, 2.020, 0.136721
2023/06/29 05:02:12.890, True, 1.991, 0.139086
2023/06/29 05:02:13.394, True, 2.321, 0.138094
2023/06/29 05:02:13.890, True, 2.022, 0.137179
2023/06/29 05:02:14.393, True, 1.987, 0.137713
2023/06/29 05:02:14.889, True, 2.359, 0.136721
2023/06/29 05:02:15.394, True, 1.992, 0.138399
2023/06/29 05:02:15.898, True, 2.321, 0.137484
2023/06/29 05:02:16.393, True, 2.357, 0.137255
2023/06/29 05:02:16.898, True, 1.991, 0.137789
2023/06/29 05:02:17.402, True, 2.323, 0.138170
2023/06/29 05:02:17.906, True, 1.986, 0.137179
2023/06/29 05:02:18.402, True, 2.024, 0.138781
2023/06/29 05:02:18.906, True, 2.320, 0.136873
2023/06/29 05:02:19.410, True, 1.990, 0.137331
2023/06/29 05:02:19.906, True, 2.020, 0.137865
2023/06/29 05:02:20.410, True, 2.322, 0.136950
2023/06/29 05:02:20.914, True, 1.989, 0.138705
2023/06/29 05:02:21.418, True, 2.322, 0.137789
2023/06/29 05:02:21.914, True, 2.361, 0.135882
2023/06/29 05:02:22.418, True, 1.988, 0.136568
2023/06/29 05:02:22.922, True, 2.321, 0.136950
2023/06/29 05:02:23.418, True, 2.022, 0.137102
2023/06/29 05:02:23.922, True, 1.990, 0.136797
2023/06/29 05:02:24.426, True, 2.322, 0.135882
2023/06/29 05:02:24.922, True, 2.022, 0.139849
2023/06/29 05:02:25.426, True, 2.322, 0.136187
2023/06/29 05:02:25.930, True, 2.320, 0.137636
2023/06/29 05:02:26.426, True, 2.021, 0.137865
2023/06/29 05:02:26.930, True, 1.991, 0.138781
2023/06/29 05:02:27.434, True, 1.989, 0.136873
2023/06/29 05:02:27.930, True, 2.358, 0.139239
2023/06/29 05:02:28.434, True, 1.989, 0.136568
2023/06/29 05:02:28.938, True, 1.990, 0.137179
2023/06/29 05:02:29.434, True, 2.022, 0.137865
2023/06/29 05:02:29.938, True, 2.323, 0.136416
2023/06/29 05:02:30.442, True, 1.988, 0.138933
2023/06/29 05:02:30.938, True, 2.023, 0.139239
2023/06/29 05:02:31.442, True, 1.988, 0.138933
2023/06/29 05:02:31.946, True, 2.323, 0.135882
2023/06/29 05:02:32.441, True, 2.021, 0.137102
2023/06/29 05:02:32.946, True, 2.323, 0.136568
2023/06/29 05:02:33.450, True, 1.987, 0.138323
2023/06/29 05:02:33.946, True, 2.021, 0.136797
2023/06/29 05:02:34.450, True, 2.322, 0.137255
2023/06/29 05:02:34.954, True, 1.992, 0.135958
2023/06/29 05:02:35.450, True, 2.360, 0.136263
2023/06/29 05:02:35.954, True, 1.655, 0.136034
2023/06/29 05:02:36.457, True, 2.321, 0.137179
2023/06/29 05:02:36.954, True, 2.023, 0.138628
2023/06/29 05:02:37.458, True, 1.989, 0.136492
2023/06/29 05:02:37.962, True, 1.989, 0.136873
2023/06/29 05:02:38.458, True, 2.022, 0.139162
2023/06/29 05:02:38.962, True, 1.990, 0.136263
2023/06/29 05:02:39.466, True, 1.988, 0.138933
2023/06/29 05:02:39.970, True, 2.321, 0.137560
2023/06/29 05:02:40.466, True, 2.022, 0.139010
2023/06/29 05:02:40.970, True, 1.990, 0.138170
2023/06/29 05:02:41.474, True, 1.989, 0.138476
2023/06/29 05:02:41.970, True, 2.361, 0.137942
2023/06/29 05:02:42.474, True, 1.988, 0.139315
2023/06/29 05:02:42.978, True, 1.989, 0.138628
2023/06/29 05:02:43.474, True, 2.359, 0.138399
2023/06/29 05:02:43.978, True, 1.992, 0.137560
2023/06/29 05:02:44.474, True, 2.357, 0.137865
2023/06/29 05:02:44.978, True, 1.989, 0.137026
2023/06/29 05:02:45.482, True, 2.321, 0.137636
2023/06/29 05:02:45.986, True, 1.991, 0.135576
2023/06/29 05:02:46.482, True, 2.358, 0.137331
2023/06/29 05:02:46.986, True, 1.993, 0.136950
2023/06/29 05:02:47.482, True, 2.018, 0.135500
2023/06/29 05:02:47.986, True, 2.321, 0.139010
2023/06/29 05:02:48.490, True, 1.990, 0.135271
2023/06/29 05:02:48.994, True, 2.322, 0.137636
2023/06/29 05:02:49.490, True, 2.021, 0.137713
2023/06/29 05:02:49.994, True, 2.321, 0.137331
2023/06/29 05:02:50.498, True, 1.990, 0.135653
2023/06/29 05:02:50.994, True, 2.359, 0.138323
2023/06/29 05:02:51.498, True, 1.992, 0.137102
2023/06/29 05:02:52.002, True, 1.989, 0.138094
2023/06/29 05:02:52.498, True, 2.020, 0.136263
2023/06/29 05:02:53.002, True, 1.990, 0.135348
2023/06/29 05:02:53.498, True, 2.020, 0.135195
2023/06/29 05:02:54.002, True, 2.321, 0.134737
2023/06/29 05:02:54.506, True, 1.990, 0.137484
2023/06/29 05:02:55.002, True, 2.022, 0.136873
2023/06/29 05:02:55.506, True, 2.321, 0.137255
2023/06/29 05:02:56.010, True, 1.989, 0.136492
2023/06/29 05:02:56.514, True, 2.321, 0.133898
2023/06/29 05:02:57.010, True, 2.022, 0.136721
2023/06/29 05:02:57.514, True, 2.324, 0.135729
2023/06/29 05:02:58.018, True, 1.987, 0.135653
2023/06/29 05:02:58.514, True, 2.022, 0.137713
2023/06/29 05:02:59.018, True, 1.989, 0.137560
2023/06/29 05:02:59.522, True, 2.324, 0.136034
2023/06/29 05:03:00.025, True, 1.991, 0.135195
2023/06/29 05:03:00.522, True, 2.019, 0.137484
2023/06/29 05:03:01.026, True, 2.323, 0.137789
2023/06/29 05:03:01.530, True, 1.988, 0.135576
2023/06/29 05:03:02.026, True, 2.021, 0.137102
2023/06/29 05:03:02.530, True, 1.989, 0.133211
2023/06/29 05:03:03.034, True, 2.323, 0.137331
2023/06/29 05:03:03.538, True, 1.989, 0.135805
2023/06/29 05:03:04.034, True, 2.359, 0.135958
2023/06/29 05:03:04.538, True, 1.990, 0.135882
2023/06/29 05:03:05.042, True, 2.321, 0.134661
2023/06/29 05:03:05.538, True, 2.021, 0.136034
2023/06/29 05:03:06.042, True, 1.990, 0.135729
2023/06/29 05:03:06.546, True, 1.990, 0.137636
2023/06/29 05:03:07.042, True, 2.022, 0.136873
2023/06/29 05:03:07.546, True, 1.989, 0.134813
2023/06/29 05:03:08.050, True, 2.321, 0.137636
2023/06/29 05:03:08.546, True, 2.022, 0.135805
2023/06/29 05:03:09.050, True, 1.990, 0.136721
2023/06/29 05:03:09.554, True, 1.989, 0.138323
2023/06/29 05:03:10.058, True, 1.990, 0.135805
2023/06/29 05:03:10.554, True, 2.022, 0.136034
2023/06/29 05:03:11.058, True, 2.320, 0.137102
2023/06/29 05:03:11.562, True, 1.989, 0.136034
2023/06/29 05:03:12.058, True, 2.022, 0.138933
2023/06/29 05:03:12.562, True, 2.321, 0.136034
2023/06/29 05:03:13.066, True, 1.990, 0.134508
2023/06/29 05:03:13.562, True, 2.022, 0.135195
2023/06/29 05:03:14.066, True, 2.322, 0.135042
2023/06/29 05:03:14.570, True, 1.989, 0.136797
2023/06/29 05:03:15.066, True, 2.362, 0.136873
2023/06/29 05:03:15.570, True, 1.986, 0.134661
2023/06/29 05:03:16.074, True, 2.321, 0.136797
2023/06/29 05:03:16.578, True, 1.989, 0.137179
2023/06/29 05:03:17.074, True, 2.022, 0.135195
2023/06/29 05:03:17.578, True, 2.322, 0.136187
2023/06/29 05:03:18.082, True, 1.989, 0.136263
2023/06/29 05:03:18.578, True, 2.021, 0.137331
2023/06/29 05:03:19.082, True, 1.989, 0.134585
2023/06/29 05:03:19.586, True, 2.322, 0.135882
2023/06/29 05:03:20.082, True, 2.022, 0.137713
2023/06/29 05:03:20.586, True, 1.990, 0.137026
2023/06/29 05:03:21.090, True, 2.322, 0.134966
2023/06/29 05:03:21.586, True, 2.022, 0.135576
2023/06/29 05:03:22.090, True, 1.989, 0.134585
2023/06/29 05:03:22.594, True, 2.324, 0.137026
2023/06/29 05:03:23.090, True, 2.022, 0.137560
2023/06/29 05:03:23.593, True, 2.322, 0.136110
2023/06/29 05:03:24.098, True, 1.989, 0.135882
2023/06/29 05:03:24.594, True, 2.023, 0.137713
2023/06/29 05:03:25.098, True, 1.987, 0.137026
2023/06/29 05:03:25.602, True, 2.320, 0.135805
2023/06/29 05:03:26.105, True, 1.993, 0.136492
2023/06/29 05:03:26.602, True, 2.018, 0.133898
2023/06/29 05:03:27.106, True, 1.990, 0.134127
2023/06/29 05:03:27.610, True, 2.321, 0.134737
2023/06/29 05:03:28.106, True, 1.687, 0.136568
2023/06/29 05:03:28.610, True, 1.987, 0.136416
2023/06/29 05:03:29.114, True, 2.321, 0.134585
2023/06/29 05:03:29.610, True, 2.022, 0.134890
2023/06/29 05:03:30.114, True, 2.321, 0.134813
2023/06/29 05:03:30.618, True, 1.990, 0.135958
2023/06/29 05:03:31.114, True, 2.022, 0.134508
2023/06/29 05:03:31.618, True, 1.989, 0.135348
2023/06/29 05:03:32.122, True, 1.990, 0.137102
2023/06/29 05:03:32.618, True, 2.022, 0.134203
2023/06/29 05:03:33.122, True, 1.989, 0.135729
2023/06/29 05:03:33.626, True, 2.322, 0.136492
2023/06/29 05:03:34.121, True, 2.022, 0.132525
2023/06/29 05:03:34.626, True, 1.991, 0.134813
2023/06/29 05:03:35.130, True, 2.320, 0.136568
2023/06/29 05:03:35.626, True, 2.022, 0.135195
2023/06/29 05:03:36.130, True, 1.988, 0.134813
2023/06/29 05:03:36.634, True, 2.325, 0.133898
2023/06/29 05:03:37.130, True, 2.020, 0.136950
2023/06/29 05:03:37.634, True, 1.988, 0.134737
2023/06/29 05:03:38.138, True, 1.992, 0.132982
2023/06/29 05:03:38.634, True, 2.022, 0.133135
2023/06/29 05:03:39.138, True, 1.990, 0.136187
2023/06/29 05:03:39.642, True, 1.990, 0.132525
2023/06/29 05:03:40.138, True, 2.022, 0.133822
2023/06/29 05:03:40.642, True, 2.321, 0.134356
2023/06/29 05:03:41.145, True, 1.990, 0.135119
2023/06/29 05:03:41.641, True, 2.022, 0.134890
2023/06/29 05:03:42.146, True, 1.988, 0.135882
2023/06/29 05:03:42.650, True, 2.322, 0.137102
2023/06/29 05:03:43.145, True, 2.023, 0.134966
2023/06/29 05:03:43.649, True, 1.989, 0.135195
2023/06/29 05:03:44.154, True, 1.990, 0.134279
2023/06/29 05:03:44.650, True, 2.019, 0.134127
2023/06/29 05:03:45.154, True, 1.993, 0.136416
2023/06/29 05:03:45.658, True, 1.989, 0.136339
2023/06/29 05:03:46.154, True, 2.355, 0.136416
2023/06/29 05:03:46.658, True, 1.990, 0.134051
2023/06/29 05:03:47.162, True, 1.991, 0.133516
2023/06/29 05:03:47.666, True, 1.988, 0.134890
2023/06/29 05:03:48.162, True, 2.025, 0.136263
2023/06/29 05:03:48.666, True, 1.990, 0.133822
2023/06/29 05:03:49.170, True, 2.317, 0.137636
2023/06/29 05:03:49.666, True, 2.026, 0.134203
2023/06/29 05:03:50.170, True, 1.986, 0.136110
2023/06/29 05:03:50.674, True, 2.323, 0.136187
2023/06/29 05:03:51.170, True, 2.020, 0.134203
2023/06/29 05:03:51.674, True, 1.989, 0.134585
2023/06/29 05:03:52.178, True, 2.322, 0.136339
2023/06/29 05:03:52.674, True, 2.021, 0.135729
2023/06/29 05:03:53.178, True, 1.993, 0.137102
2023/06/29 05:03:53.682, True, 1.987, 0.134661
2023/06/29 05:03:54.178, True, 2.020, 0.136339
2023/06/29 05:03:54.682, True, 1.990, 0.137713
2023/06/29 05:03:55.186, True, 1.989, 0.133593
2023/06/29 05:03:55.682, True, 2.022, 0.136797
2023/06/29 05:03:56.186, True, 1.991, 0.133135
2023/06/29 05:03:56.690, True, 2.320, 0.134661
2023/06/29 05:03:57.186, True, 2.022, 0.133593
2023/06/29 05:03:57.690, True, 1.990, 0.136492
2023/06/29 05:03:58.194, True, 1.990, 0.136721
2023/06/29 05:03:58.690, True, 2.021, 0.136797
2023/06/29 05:03:59.194, True, 1.993, 0.134356
2023/06/29 05:03:59.698, True, 2.318, 0.134585
2023/06/29 05:04:00.194, True, 2.022, 0.134585
2023/06/29 05:04:00.698, True, 2.321, 0.134890
2023/06/29 05:04:01.202, True, 2.321, 0.136034
2023/06/29 05:04:01.697, True, 2.022, 0.134127
2023/06/29 05:04:02.202, True, 1.989, 0.132982
2023/06/29 05:04:02.706, True, 1.990, 0.135882
2023/06/29 05:04:03.202, True, 2.359, 0.135119
2023/06/29 05:04:03.706, True, 1.990, 0.134585
2023/06/29 05:04:04.202, True, 2.021, 0.134661
2023/06/29 05:04:04.706, True, 2.322, 0.134279
2023/06/29 05:04:05.210, True, 2.321, 0.134585
2023/06/29 05:04:05.706, True, 2.022, 0.135271
2023/06/29 05:04:06.210, True, 2.321, 0.135424
2023/06/29 05:04:06.714, True, 1.989, 0.136568
2023/06/29 05:04:07.210, True, 2.026, 0.136568
2023/06/29 05:04:07.714, True, 1.988, 0.133974
2023/06/29 05:04:08.218, True, 1.989, 0.134737
2023/06/29 05:04:08.714, True, 2.021, 0.135119
2023/06/29 05:04:09.218, True, 2.323, 0.134813
2023/06/29 05:04:09.722, True, 1.988, 0.133135
2023/06/29 05:04:10.226, True, 2.322, 0.134813
2023/06/29 05:04:10.722, True, 2.021, 0.135042
2023/06/29 05:04:11.226, True, 1.990, 0.132677